EW4271 Weather Reports


time (UTC)temp
F
wind
direction
speed
knots
gust
knots
rain 1hr
in
rain 24hr
in
rain mn
in
humidity
%
barometer
mb
20260831151617 68 148 1.7 6.1 0.00 0.00 0.00 60 1028.2
20260831151111 67 149 1.7 2.6 0.00 0.00 0.00 60 1028.2
20260831150626 67 130 1.7 4.3 0.00 0.00 0.00 60 1028.2
20260831150118 67 86 1.7 4.3 0.00 0.00 0.00 61 1028.2
20260831145613 66 140 0.9 3.5 0.00 0.00 0.00 64 1028.3
20260831145106 66 143 1.7 3.5 0.00 0.00 0.00 63 1028.3
20260831144618 66 142 0.9 3.5 0.00 0.00 0.00 64 1028.3
20260831144132 65 142 2.6 3.5 0.00 0.00 0.00 64 1028.5
20260831143610 65 178 1.7 4.3 0.00 0.00 0.00 65 1028.5
20260831143123 64 136 0.9 3.5 0.00 0.00 0.00 66 1028.6
20260831142618 64 131 0.9 3.5 0.00 0.00 0.00 65 1028.7
20260831142112 64 134 0.9 2.6 0.00 0.00 0.00 64 1028.6
20260831141606 65 50 0.9 2.6 0.00 0.00 0.00 61 1028.5
20260831141100 65 113 0.0 2.6 0.00 0.00 0.00 61 1028.6
20260831140613 65 113 0.9 2.6 0.00 0.00 0.00 61 1028.5
20260831140108 64 38 0.0 2.6 0.00 0.00 0.00 62 1028.6
20260831135604 64 175 0.0 2.6 0.00 0.00 0.00 61 1028.5
20260831135119 64 178 0.9 4.3 0.00 0.00 0.00 61 1028.5
20260831134613 64 125 1.7 4.3 0.00 0.00 0.00 60 1028.4
20260831134106 64 143 1.7 3.5 0.00 0.00 0.00 60 1028.4
20260831133640 64 184 0.0 1.7 0.00 0.00 0.00 59 1028.5
20260831133112 64 184 0.9 1.7 0.00 0.00 0.00 59 1028.5
20260831132606 64 182 0.0 1.7 0.00 0.00 0.00 58 1028.6
20260831132100 64 145 0.0 3.5 0.00 0.00 0.00 58 1028.6
20260831131619 65 145 2.6 3.5 0.00 0.00 0.00 57 1028.5
20260831131112 65 153 0.9 4.3 0.00 0.00 0.00 56 1028.3
20260831130606 65 155 1.7 3.5 0.00 0.00 0.00 56 1028.1
20260831130120 65 164 0.0 4.3 0.00 0.00 0.00 54 1028.0
20260831125635 65 28 1.7 4.3 0.00 0.00 0.00 54 1027.8
20260831125107 65 23 1.7 4.3 0.00 0.00 0.00 55 1027.6
20260831124601 64 360 1.7 4.3 0.00 0.00 0.00 55 1027.4
20260831124116 64 44 0.9 2.6 0.00 0.00 0.00 55 1027.4
20260831123613 64 42 0.9 2.6 0.00 0.00 0.00 55 1027.4
20260831123108 64 61 1.7 5.2 0.00 0.00 0.00 56 1027.4
20260831122621 64 51 1.7 7.0 0.00 0.00 0.00 57 1027.5
20260831122114 63 54 2.6 7.8 0.00 0.00 0.00 59 1027.6
20260831121609 62 46 1.7 5.2 0.00 0.00 0.00 62 1027.6
20260831121103 62 164 0.9 2.6 0.00 0.00 0.00 62 1027.7
20260831120616 62 170 0.0 1.7 0.00 0.00 0.00 63 1027.9
20260831120132 62 148 0.0 2.6 0.00 0.00 0.00 63 1027.9
20260831115604 61 148 0.9 2.6 0.00 0.00 0.00 63 1028.1
20260831115102 61 294 0.0 0.0 0.00 0.00 0.00 63 1028.3
20260831114615 62 294 0.0 0.0 0.00 0.00 0.00 65 1028.2
20260831114109 62 294 0.0 0.0 0.00 0.00 0.00 64 1028.3
20260831113603 62 294 0.0 0.0 0.00 0.00 0.00 64 1028.2
20260831113117 62 294 0.0 0.0 0.00 0.00 0.00 62 1028.1
20260831112611 62 294 0.0 0.9 0.00 0.00 0.00 63 1028.1
20260831112126 62 294 0.0 1.7 0.00 0.00 0.00 63 1027.9
20260831111618 62 294 0.9 1.7 0.00 0.00 0.00 62 1027.6
20260831111116 62 256 0.9 2.6 0.00 0.00 0.00 62 1027.3
20260831110611 62 257 0.9 1.7 0.00 0.00 0.00 61 1027.1
20260831110105 62 45 0.0 0.0 0.00 0.00 0.00 62 1027.0
20260831105619 62 45 0.0 0.0 0.00 0.00 0.00 61 1027.0
20260831105113 62 45 0.0 0.0 0.00 0.00 0.00 61 1026.9
20260831104607 62 45 0.0 0.0 0.00 0.00 0.00 61 1026.9
20260831104100 63 45 0.0 0.0 0.00 0.00 0.00 61 1026.9
20260831103615 63 45 0.0 0.0 0.00 0.00 0.00 60 1027.1
20260831103112 63 45 0.0 0.0 0.00 0.00 0.00 60 1027.1
20260831102607 63 45 0.0 0.0 0.00 0.00 0.00 60 1027.1
20260831102121 63 45 0.0 0.0 0.00 0.00 0.00 58 1027.1
20260831101615 63 45 0.0 0.0 0.00 0.00 0.00 58 1027.1
20260831101129 64 45 0.0 0.0 0.00 0.00 0.00 59 1027.1
20260831100601 64 45 0.0 0.0 0.00 0.00 0.00 57 1027.1
20260831100136 64 45 0.0 0.0 0.00 0.00 0.00 56 1027.1
20260831095608 64 45 0.0 0.0 0.00 0.00 0.00 56 1027.0
20260831095102 64 45 0.0 0.0 0.00 0.00 0.00 57 1027.0
20260831094636 64 45 0.0 0.9 0.00 0.00 0.00 57 1027.0
20260831094113 65 45 0.0 0.9 0.00 0.00 0.00 57 1026.9
20260831093607 65 45 0.0 3.5 0.00 0.00 0.00 56 1026.9
20260831093101 65 44 1.7 3.5 0.00 0.01 0.00 53 1026.9
20260831092615 65 53 0.0 2.6 0.00 0.01 0.00 55 1026.8
20260831092109 64 177 0.9 2.6 0.00 0.01 0.00 54 1026.7
20260831091602 64 57 0.0 2.6 0.00 0.01 0.00 59 1026.8
20260831091116 64 57 0.9 3.5 0.00 0.01 0.00 58 1026.9
20260831090614 64 76 0.9 3.5 0.00 0.01 0.00 56 1026.9
20260831090108 63 237 0.9 1.7 0.00 0.01 0.00 59 1027.0
20260831085601 64 234 0.0 1.7 0.00 0.01 0.00 60 1027.0
20260831085115 64 234 0.0 0.0 0.00 0.01 0.00 57 1026.9
20260831084610 64 234 0.0 0.0 0.00 0.01 0.00 58 1026.9
20260831084125 65 234 0.0 0.0 0.00 0.01 0.00 59 1026.9
20260831083618 65 234 0.0 0.0 0.00 0.01 0.00 59 1026.8
20260831083111 65 234 0.0 0.0 0.00 0.01 0.00 55 1026.8
20260831082609 65 234 0.0 0.0 0.00 0.01 0.00 55 1026.8
20260831082103 65 234 0.0 0.0 0.00 0.01 0.00 54 1026.8
20260831081616 66 234 0.0 0.0 0.00 0.01 0.00 53 1026.9
20260831081110 66 234 0.0 1.7 0.00 0.01 0.00 52 1026.9
20260831080604 65 234 0.0 1.7 0.00 0.01 0.00 53 1026.9
20260831080118 65 234 0.9 1.7 0.00 0.01 0.00 53 1026.9
20260831075633 65 269 0.0 0.0 0.00 0.01 0.00 54 1026.8
20260831075105 65 269 0.0 0.0 0.00 0.01 0.00 56 1026.8
20260831074603 65 269 0.0 0.0 0.00 0.01 0.00 58 1026.9
20260831074117 65 269 0.0 0.0 0.00 0.01 0.00 55 1026.8
20260831073610 65 269 0.0 0.0 0.00 0.01 0.00 55 1026.8
20260831073126 65 269 0.0 0.0 0.00 0.01 0.00 57 1026.7
20260831072619 66 269 0.0 0.0 0.00 0.01 0.00 55 1026.7
20260831072113 66 269 0.0 0.0 0.00 0.01 0.00 53 1026.5
20260831071606 66 269 0.0 0.0 0.00 0.01 0.00 54 1026.5
20260831071101 66 270 0.0 0.0 0.00 0.01 0.00 52 1026.6
20260831070614 66 270 0.0 0.0 0.00 0.01 0.00 51 1026.6
20260831070113 66 269 0.0 0.0 0.00 0.01 0.00 53 1026.4
20260831065607 67 269 0.0 0.0 0.00 0.01 0.00 53 1026.4
20260831065101 67 269 0.0 0.0 0.00 0.01 0.00 50 1026.4
20260831064615 67 269 0.0 0.0 0.00 0.01 0.00 48 1026.4
20260831064109 67 269 0.0 0.0 0.00 0.01 0.00 50 1026.3
20260831063603 67 269 0.0 0.0 0.00 0.01 0.00 49 1026.4
20260831063117 67 236 0.0 0.0 0.00 0.01 0.01 48 1026.4
20260831062615 68 237 0.0 2.6 0.00 0.01 0.01 49 1026.2
20260831062109 68 237 0.9 2.6 0.00 0.01 0.01 46 1026.2
20260831061603 68 351 0.0 0.9 0.00 0.01 0.01 47 1026.3
20260831061116 69 244 0.0 0.9 0.00 0.01 0.01 44 1026.2
20260831060610 70 159 0.0 0.9 0.00 0.01 0.01 46 1026.2
20260831060104 70 159 0.0 2.6 0.00 0.01 0.01 43 1026.2
20260831055618 71 159 0.9 6.1 0.00 0.01 0.01 44 1026.2
20260831055112 71 148 2.6 6.1 0.00 0.01 0.01 39 1026.1
20260831054610 71 161 0.0 2.6 0.00 0.01 0.01 40 1026.0
20260831054104 71 161 0.9 4.3 0.00 0.01 0.01 40 1025.8
20260831053618 71 122 0.9 4.3 0.00 0.01 0.01 41 1025.8
20260831053111 70 253 1.7 4.3 0.00 0.02 0.01 42 1026.0
20260831052605 69 61 0.9 3.5 0.00 0.02 0.01 47 1026.1
20260831052120 69 182 0.9 1.7 0.00 0.02 0.01 44 1026.1
20260831051635 69 175 0.0 2.6 0.00 0.02 0.01 50 1026.2
20260831051108 69 109 0.9 4.3 0.00 0.02 0.01 51 1026.2
20260831050602 68 246 0.0 3.5 0.00 0.02 0.01 49 1026.2
20260831050100 68 246 1.7 3.5 0.00 0.02 0.01 49 1026.2
20260831045614 68 324 0.0 0.0 0.00 0.02 0.01 51 1026.1
20260831045128 68 324 0.0 2.6 0.00 0.02 0.01 51 1026.1
20260831044601 68 324 1.7 3.5 0.00 0.02 0.01 52 1026.1
20260831044113 68 242 1.7 3.5 0.00 0.02 0.01 50 1026.1
20260831043608 68 207 0.0 1.7 0.00 0.02 0.01 52 1026.0
20260831043102 69 207 0.0 1.7 0.00 0.02 0.01 49 1026.2
20260831042616 69 207 0.0 0.9 0.00 0.02 0.01 52 1026.2
20260831042131 69 207 0.0 1.7 0.00 0.02 0.01 52 1026.2
20260831041608 69 207 0.9 1.7 0.00 0.02 0.01 52 1026.2
20260831041102 70 207 0.9 0.9 0.00 0.02 0.01 50 1026.0
20260831040614 70 207 0.0 0.0 0.00 0.02 0.01 52 1026.1
20260831040107 70 207 0.0 0.0 0.00 0.02 0.01 50 1026.2
20260831035622 70 207 0.0 0.0 0.00 0.02 0.01 49 1026.2
20260831035116 71 207 0.0 0.0 0.00 0.02 0.01 50 1026.4
20260831034609 71 207 0.0 0.0 0.00 0.02 0.01 49 1026.3
20260831034103 72 207 0.0 0.0 0.00 0.02 0.01 47 1026.2
20260831033601 72 207 0.0 0.0 0.00 0.02 0.01 47 1026.2
20260831033115 72 207 0.0 0.0 0.00 0.05 0.01 46 1026.2
20260831032609 73 207 0.0 0.0 0.00 0.05 0.01 43 1026.0
20260831032103 73 207 0.0 0.9 0.00 0.05 0.01 46 1026.0
20260831031617 73 207 0.0 0.9 0.00 0.05 0.01 42 1026.0
20260831031110 73 207 0.9 1.7 0.00 0.05 0.01 41 1025.9
20260831030625 73 207 0.9 1.7 0.00 0.05 0.01 41 1025.8
20260831030117 73 207 0.9 1.7 0.00 0.05 0.01 42 1025.8
20260831025611 72 207 0.9 2.6 0.00 0.05 0.01 42 1025.7
20260831025106 72 207 0.9 2.6 0.00 0.05 0.01 42 1025.7
20260831024603 71 150 0.9 1.7 0.00 0.05 0.01 45 1025.7
20260831024118 71 150 0.0 0.0 0.00 0.05 0.01 47 1025.6
20260831023612 71 150 0.0 0.0 0.00 0.05 0.01 45 1025.5
20260831023106 71 150 0.0 0.0 0.00 0.07 0.01 48 1025.4
20260831022620 71 150 0.0 0.0 0.00 0.07 0.01 46 1025.4
20260831022114 71 150 0.0 0.0 0.00 0.07 0.01 46 1025.4
20260831021609 72 150 0.0 0.0 0.00 0.07 0.01 49 1025.4
20260831021122 72 150 0.0 0.0 0.00 0.07 0.01 47 1025.3
20260831020615 72 150 0.0 0.0 0.00 0.07 0.01 46 1025.2
20260831020112 73 150 0.0 0.0 0.00 0.07 0.01 46 1025.1
20260831015607 73 150 0.0 0.0 0.00 0.07 0.01 42 1025.1
20260831015120 73 150 0.0 0.9 0.00 0.07 0.01 42 1025.2
20260831014614 73 150 0.0 1.7 0.00 0.07 0.01 43 1025.1
20260831014109 73 150 0.0 0.0 0.00 0.07 0.01 44 1025.0
20260831013623 74 150 0.0 0.0 0.00 0.07 0.01 44 1025.0
20260831013115 74 150 0.0 0.0 0.00 0.07 0.01 44 1025.0
20260831012609 74 150 0.0 0.0 0.00 0.07 0.01 47 1024.9
20260831012108 75 150 0.0 0.0 0.00 0.07 0.01 46 1025.0
20260831011601 75 150 0.0 0.0 0.00 0.07 0.01 47 1025.0
20260831011114 76 150 0.0 0.0 0.00 0.07 0.01 45 1025.0
20260831010607 76 150 0.0 0.0 0.00 0.07 0.01 44 1025.0
20260831005616 77 150 0.0 0.0 0.00 0.07 0.01 43 1025.0
20260831005130 77 150 0.0 0.0 0.00 0.07 0.01 41 1024.9
20260831004604 78 150 0.0 0.0 0.00 0.07 0.01 40 1025.0
20260831004101 78 150 0.0 0.0 0.00 0.07 0.01 39 1025.0
20260831003636 79 150 0.0 0.0 0.00 0.07 0.01 40 1025.0
20260831003108 79 150 0.0 0.9 0.00 0.07 0.01 40 1025.0
20260831002601 79 150 0.0 1.7 0.00 0.07 0.01 38 1025.1
20260831002116 79 150 0.9 1.7 0.00 0.07 0.01 35 1025.1
20260831001608 79 150 0.0 1.7 0.00 0.07 0.01 36 1025.1
20260831001102 79 150 0.0 0.0 0.00 0.07 0.01 37 1025.1
20260831000636 79 150 0.0 0.0 0.00 0.07 0.01 38 1025.0
20260831000109 79 150 0.0 0.0 0.00 0.07 0.01 37 1025.0
20260830235603 79 150 0.0 0.0 0.00 0.07 0.01 36 1025.0
20260830235101 79 150 0.0 0.0 0.00 0.07 0.01 37 1025.0
20260830234615 78 145 0.0 0.0 0.00 0.07 0.01 38 1024.9
20260830234109 78 145 0.0 0.0 0.00 0.07 0.01 40 1025.0
20260830233602 78 145 0.0 0.0 0.00 0.07 0.01 39 1024.9
20260830233116 78 145 0.0 0.0 0.00 0.07 0.01 39 1025.0
20260830232609 78 145 0.0 0.0 0.00 0.07 0.01 38 1024.9
20260830232103 79 145 0.0 0.9 0.00 0.07 0.01 37 1025.0
20260830231617 79 145 0.0 5.2 0.00 0.07 0.01 38 1025.0
20260830231110 79 145 0.9 5.2 0.00 0.07 0.01 37 1025.1
20260830230608 79 117 0.0 2.6 0.00 0.07 0.01 39 1025.0
20260830225614 79 146 2.6 6.1 0.00 0.07 0.01 38 1025.1
20260830225109 78 143 1.7 3.5 0.00 0.07 0.01 39 1025.2
20260830224602 78 52 0.0 3.5 0.00 0.07 0.01 41 1025.2
20260830224117 78 50 1.7 3.5 0.00 0.07 0.01 41 1025.2
20260830223610 78 97 0.9 1.7 0.00 0.07 0.01 43 1025.3
20260830223103 78 120 0.0 1.7 0.00 0.07 0.01 42 1025.3
20260830222621 78 117 0.9 3.5 0.00 0.07 0.01 40 1025.3
20260830222114 78 153 0.9 4.3 0.00 0.07 0.01 41 1025.4
20260830221608 78 140 1.7 4.3 0.00 0.07 0.01 40 1025.4
20260830221102 79 67 1.7 2.6 0.00 0.07 0.01 41 1025.4
20260830220616 79 169 0.0 3.5 0.00 0.07 0.01 40 1025.4
20260830220130 79 139 1.7 3.5 0.00 0.07 0.01 39 1025.5
20260830215602 80 57 0.9 3.5 0.00 0.07 0.01 39 1025.5
20260830215116 80 16 0.9 3.5 0.00 0.07 0.01 38 1025.5
20260830214631 81 146 1.7 3.5 0.00 0.07 0.01 39 1025.5
20260830214107 80 51 1.7 3.5 0.00 0.07 0.01 41 1025.5
20260830213622 80 40 1.7 3.5 0.00 0.07 0.01 40 1025.6
20260830213115 80 136 0.9 2.6 0.00 0.07 0.01 41 1025.6
20260830212630 79 151 0.9 2.6 0.00 0.07 0.01 40 1025.7
20260830212123 79 147 0.9 3.5 0.00 0.07 0.01 41 1025.8
20260830211615 78 138 0.9 3.5 0.00 0.07 0.01 40 1025.9
20260830211109 78 163 1.7 4.3 0.00 0.07 0.01 41 1026.0
20260830210624 78 149 1.7 4.3 0.00 0.07 0.01 41 1026.0
20260830210137 78 36 0.0 3.5 0.00 0.07 0.01 42 1026.0
20260830205610 78 36 1.7 4.3 0.00 0.07 0.01 41 1026.1
20260830205124 78 35 1.7 4.3 0.00 0.07 0.01 41 1026.2
20260830204601 78 108 1.7 5.2 0.00 0.07 0.01 41 1026.2
20260830204115 78 59 2.6 7.8 0.00 0.07 0.01 41 1026.2
20260830203608 79 9 4.3 7.8 0.00 0.07 0.01 40 1026.4
20260830203101 79 150 1.7 4.3 0.00 0.07 0.01 42 1026.4
20260830202616 78 115 1.7 3.5 0.00 0.07 0.01 44 1026.5
20260830202111 77 65 2.6 3.5 0.00 0.07 0.01 43 1026.7
20260830201604 77 84 0.9 2.6 0.00 0.07 0.01 44 1026.9
20260830201139 77 84 0.9 4.3 0.00 0.07 0.01 43 1026.9
20260830200612 78 150 1.7 3.5 0.00 0.07 0.01 43 1027.0
20260830200110 78 163 2.6 4.3 0.00 0.07 0.01 42 1027.0
20260830195603 78 32 1.7 2.6 0.00 0.07 0.01 42 1027.0
20260830195117 79 75 1.7 4.3 0.00 0.07 0.01 44 1026.9
20260830194612 79 38 1.7 6.1 0.00 0.07 0.01 41 1026.9
20260830194107 79 138 2.6 6.1 0.00 0.07 0.01 43 1026.9
20260830193600 79 147 0.9 5.2 0.00 0.07 0.01 45 1026.9
20260830193114 79 149 2.6 5.2 0.00 0.07 0.01 44 1026.9
20260830192610 79 54 1.7 4.3 0.00 0.07 0.01 42 1026.9
20260830192125 78 158 1.7 7.0 0.00 0.07 0.01 42 1026.9
20260830191638 79 32 3.5 7.0 0.00 0.07 0.01 40 1026.9
20260830191108 79 153 1.7 4.3 0.00 0.07 0.01 43 1027.0
20260830190603 79 44 1.7 5.2 0.00 0.07 0.01 45 1027.0
20260830190116 78 149 1.7 5.2 0.00 0.07 0.01 43 1027.1
20260830185630 78 57 1.7 6.1 0.00 0.07 0.01 47 1027.1
20260830185123 78 102 2.6 6.1 0.00 0.07 0.01 44 1027.2
20260830184617 79 142 2.6 6.1 0.00 0.07 0.01 43 1027.3
20260830184111 79 127 2.6 6.1 0.00 0.07 0.01 45 1027.3
20260830183625 78 30 2.6 4.3 0.00 0.07 0.01 36 1027.3
20260830183101 78 300 2.6 7.8 0.00 0.07 0.01 35 1027.2
20260830182615 77 49 0.9 7.8 0.00 0.07 0.01 38 1027.4
20260830182111 77 26 0.9 3.5 0.00 0.07 0.01 37 1027.4
20260830181605 76 257 1.7 3.5 0.00 0.07 0.01 49 1027.6
20260830181119 76 251 1.7 4.3 0.00 0.07 0.01 48 1027.7
20260830180612 75 213 2.6 4.3 0.00 0.07 0.01 49 1027.8
20260830180106 75 25 0.9 2.6 0.00 0.07 0.01 51 1027.8
20260830175600 75 146 1.7 7.8 0.00 0.07 0.01 50 1028.0
20260830175134 75 152 2.6 7.8 0.00 0.07 0.01 49 1028.1
20260830174611 75 290 1.7 6.1 0.00 0.07 0.01 48 1028.2
20260830174106 74 177 0.9 6.1 0.00 0.07 0.01 50 1028.2
20260830173619 74 190 1.7 5.2 0.00 0.07 0.01 51 1028.3
20260830173113 74 26 0.9 4.3 0.00 0.07 0.01 52 1028.3
20260830172607 73 290 0.9 2.6 0.00 0.07 0.01 51 1028.5
20260830172101 72 228 0.0 2.6 0.00 0.07 0.01 52 1028.6
20260830171616 72 279 0.0 2.6 0.00 0.07 0.01 52 1028.8
20260830171115 72 346 0.9 4.3 0.00 0.07 0.01 53 1028.8
20260830170607 71 30 0.9 5.2 0.00 0.07 0.01 54 1028.8
20260830165635 70 145 0.9 2.6 0.00 0.07 0.01 57 1029.0
20260830165109 70 213 0.9 2.6 0.00 0.07 0.01 58 1029.0
20260830164603 70 257 0.9 4.3 0.00 0.07 0.01 59 1029.0
20260830164117 70 144 0.0 4.3 0.00 0.07 0.01 59 1029.1
20260830163610 70 148 0.9 6.1 0.00 0.07 0.01 59 1029.1
20260830163104 70 148 1.7 4.3 0.00 0.07 0.01 61 1029.1
20260830162601 69 123 0.9 7.0 0.00 0.07 0.01 60 1029.2
20260830162115 69 134 2.6 7.0 0.00 0.07 0.01 60 1029.1
20260830161610 69 132 1.7 3.5 0.00 0.07 0.01 59 1029.1
20260830161103 68 159 0.0 4.3 0.00 0.07 0.01 63 1029.0
20260830160617 67 159 1.7 4.3 0.00 0.07 0.01 61 1029.0
20260830160112 67 94 0.9 1.7 0.00 0.07 0.01 64 1028.9
20260830155605 66 149 0.0 1.7 0.00 0.07 0.01 65 1028.9
20260830155103 66 149 0.0 1.7 0.00 0.07 0.01 68 1029.0
20260830154616 65 149 0.9 2.6 0.00 0.07 0.01 66 1029.0
20260830154131 65 149 0.9 2.6 0.00 0.07 0.01 66 1028.9
20260830153624 64 137 0.0 0.0 0.00 0.07 0.01 69 1028.9
20260830153117 64 78 0.0 0.0 0.00 0.07 0.01 69 1028.8
20260830152610 64 134 0.0 0.0 0.00 0.07 0.01 72 1028.8
20260830152104 64 134 0.0 0.0 0.00 0.07 0.01 72 1028.8